SWA636 KSAT-KPHX

Flight info

Callsign SWA636
Flight time N/A
Altitude 40000
Route ALISS7 ALISS FST ELP J50 ALIBY DRRVR PINNG1
Aircraft B738/M-SDE3/STD

Departure

Time 2026-04-22 12:19
Airport San Antonio International Airport (KSAT)

Arrival

Time N/A
Airport Phoenix Sky Harbor International Airport (KPHX)
Time Latitude Longitude Altitude Speed Heading
2026-04-22 11:58 29.52905 -98.47263 817 ft 0 kts 131°
2026-04-22 12:06 29.52912 -98.47271 817 ft 4 kts 131°
2026-04-22 12:06 29.52928 -98.47292 817 ft 2 kts 129°
2026-04-22 12:06 29.52936 -98.47308 817 ft 3 kts 110°
2026-04-22 12:06 29.52939 -98.47321 817 ft 1 kts 88°
2026-04-22 12:07 29.52936 -98.47336 817 ft 1 kts 65°
2026-04-22 12:07 29.52929 -98.47347 817 ft 1 kts 45°
2026-04-22 12:07 29.52925 -98.47352 817 ft 0 kts 41°
2026-04-22 12:13 29.52929 -98.47347 817 ft 2 kts 44°
2026-04-22 12:13 29.52964 -98.47304 817 ft 11 kts 44°
2026-04-22 12:13 29.53038 -98.47268 817 ft 13 kts 340°
2026-04-22 12:14 29.53103 -98.47349 817 ft 15 kts 306°
2026-04-22 12:14 29.53183 -98.47412 817 ft 14 kts
2026-04-22 12:14 29.53264 -98.47443 817 ft 12 kts 312°
2026-04-22 12:14 29.53326 -98.47524 817 ft 16 kts 311°
2026-04-22 12:15 29.53414 -98.47638 817 ft 18 kts 312°
2026-04-22 12:15 29.53494 -98.47749 817 ft 20 kts 313°
2026-04-22 12:15 29.53606 -98.47884 817 ft 22 kts 312°
2026-04-22 12:15 29.53699 -98.48004 817 ft 18 kts 312°
2026-04-22 12:16 29.53771 -98.48100 817 ft 13 kts 313°
2026-04-22 12:16 29.53830 -98.48174 817 ft 14 kts 312°
2026-04-22 12:16 29.53888 -98.48219 817 ft 0 kts 12°
2026-04-22 12:17 29.53941 -98.48193 817 ft 15 kts 32°
2026-04-22 12:18 29.53930 -98.48108 817 ft 14 kts 132°
2026-04-22 12:18 29.53671 -98.47777 818 ft 103 kts 132°
2026-04-22 12:18 29.53008 -98.46928 1012 ft 170 kts 131°
2026-04-22 12:18 29.52081 -98.45818 1386 ft 218 kts 135°
2026-04-22 12:19 29.50909 -98.44481 1890 ft 251 kts 136°
2026-04-22 12:19 29.49658 -98.43077 2313 ft 254 kts 136°
2026-04-22 12:19 29.48390 -98.41663 2707 ft 254 kts 136°
2026-04-22 12:19 29.47267 -98.40108 3079 ft 255 kts 119°
2026-04-22 12:20 29.46750 -98.38172 3491 ft 257 kts 96°
2026-04-22 12:20 29.46911 -98.36135 3892 ft 260 kts 75°
2026-04-22 12:20 29.47729 -98.34292 4299 ft 263 kts 55°
2026-04-22 12:20 29.48800 -98.32611 4716 ft 265 kts 55°
2026-04-22 12:21 29.49888 -98.30916 5114 ft 266 kts 54°
2026-04-22 12:21 29.51206 -98.29409 5489 ft 269 kts 34°
2026-04-22 12:21 29.52931 -98.28572 5903 ft 273 kts 13°
2026-04-22 12:21 29.54808 -98.28501 6302 ft 276 kts 352°
2026-04-22 12:22 29.56664 -98.29069 6729 ft 279 kts 344°
2026-04-22 12:22 29.58528 -98.29712 7142 ft 281 kts 343°
2026-04-22 12:22 29.60400 -98.30355 7541 ft 283 kts 343°
2026-04-22 12:22 29.62277 -98.31002 7938 ft 285 kts 341°
2026-04-22 12:23 29.64006 -98.32120 8320 ft 285 kts 319°
2026-04-22 12:23 29.65265 -98.33845 8726 ft 285 kts 298°
2026-04-22 12:23 29.65928 -98.35978 9133 ft 283 kts 278°
2026-04-22 12:23 29.66341 -98.38165 9549 ft 285 kts 284°
2026-04-22 12:24 29.66863 -98.40385 9970 ft 286 kts 284°
2026-04-22 12:24 29.67389 -98.42602 10371 ft 287 kts 284°
2026-04-22 12:24 29.67926 -98.44864 10833 ft 300 kts 284°
2026-04-22 12:24 29.68480 -98.47198 11282 ft 301 kts 284°
2026-04-22 12:25 29.69027 -98.49496 11696 ft 299 kts 284°
2026-04-22 12:25 29.69575 -98.51798 12088 ft 297 kts 284°
2026-04-22 12:25 29.70119 -98.54060 12480 ft 296 kts 284°
2026-04-22 12:25 29.70678 -98.56341 12877 ft 295 kts 284°
2026-04-22 12:26 29.71307 -98.58586 13257 ft 296 kts 292°
2026-04-22 12:26 29.72203 -98.60691 13673 ft 295 kts 294°
2026-04-22 12:26 29.73140 -98.62847 14112 ft 311 kts 294°
2026-04-22 12:26 29.74135 -98.65122 14633 ft 333 kts 294°
2026-04-22 12:27 29.75200 -98.67545 15186 ft 343 kts 294°
2026-04-22 12:27 29.76288 -98.69994 15653 ft 341 kts 294°
2026-04-22 12:27 29.77375 -98.72414 16052 ft 339 kts 294°
2026-04-22 12:27 29.78444 -98.74779 16445 ft 336 kts 293°
2026-04-22 12:28 29.79374 -98.77251 16848 ft 332 kts 289°
2026-04-22 12:28 29.80262 -98.79675 17245 ft 331 kts 289°
2026-04-22 12:28 29.81158 -98.82100 17644 ft 329 kts 289°
2026-04-22 12:28 29.82014 -98.84518 18038 ft 326 kts 285°
2026-04-22 12:29 29.82719 -98.86968 18440 ft 323 kts 284°
2026-04-22 12:29 29.83426 -98.89435 18863 ft 332 kts 284°
2026-04-22 12:29 29.84163 -98.92024 19328 ft 349 kts 284°
2026-04-22 12:29 29.84926 -98.94724 19840 ft 355 kts 284°
2026-04-22 12:30 29.86434 -99.00051 20671 ft 348 kts 284°
2026-04-22 12:30 29.87182 -99.02686 21067 ft 346 kts 284°
2026-04-22 12:30 29.87923 -99.05296 21462 ft 344 kts 284°
2026-04-22 12:31 29.88666 -99.07912 21861 ft 341 kts 284°
2026-04-22 12:31 29.89399 -99.10497 22256 ft 339 kts 284°
2026-04-22 12:31 29.90133 -99.13092 22655 ft 337 kts 284°
2026-04-22 12:31 29.90847 -99.15611 23044 ft 335 kts 284°
2026-04-22 12:32 29.91571 -99.18169 23441 ft 333 kts 284°
2026-04-22 12:32 29.92936 -99.23186 24217 ft 327 kts 281°
2026-04-22 12:32 29.93559 -99.25712 24620 ft 326 kts 283°
2026-04-22 12:33 29.94236 -99.28203 25013 ft 324 kts 284°
2026-04-22 12:33 29.94922 -99.30637 25401 ft 322 kts 284°
2026-04-22 12:33 29.95615 -99.33057 25789 ft 319 kts 284°
2026-04-22 12:33 29.96319 -99.35500 26183 ft 317 kts 285°
2026-04-22 12:34 29.97005 -99.37873 26568 ft 315 kts 285°
2026-04-22 12:34 29.97699 -99.40273 26958 ft 313 kts 285°
2026-04-22 12:34 29.98378 -99.42624 27320 ft 311 kts 285°
2026-04-22 12:34 29.99062 -99.44991 27667 ft 309 kts 285°
2026-04-22 12:35 29.99736 -99.47327 28010 ft 307 kts 285°
2026-04-22 12:35 30.00403 -99.49637 28357 ft 305 kts 285°
2026-04-22 12:35 30.01063 -99.51932 28705 ft 302 kts 284°
2026-04-22 12:35 30.01706 -99.54246 29036 ft 301 kts 284°
2026-04-22 12:36 30.02348 -99.56512 29364 ft 299 kts 284°
2026-04-22 12:36 30.02996 -99.58783 29700 ft 297 kts 284°
2026-04-22 12:36 30.03646 -99.61053 30033 ft 295 kts 285°
2026-04-22 12:36 30.04295 -99.63315 30364 ft 294 kts 285°
2026-04-22 12:37 30.04940 -99.65563 30703 ft 292 kts 285°
2026-04-22 12:37 30.05582 -99.67801 31068 ft 290 kts 285°
2026-04-22 12:37 30.06214 -99.70007 31422 ft 288 kts 285°
2026-04-22 12:37 30.06851 -99.72182 31760 ft 288 kts 287°
2026-04-22 12:38 30.07501 -99.74400 32073 ft 295 kts 287°
2026-04-22 12:38 30.08156 -99.76663 32391 ft 302 kts 287°
2026-04-22 12:38 30.08823 -99.78985 32709 ft 308 kts 287°
2026-04-22 12:38 30.09501 -99.81351 33024 ft 314 kts 287°
2026-04-22 12:39 30.10191 -99.83765 33327 ft 315 kts 288°
2026-04-22 12:39 30.11546 -99.88518 33928 ft 309 kts 288°
2026-04-22 12:39 30.12209 -99.90844 34227 ft 308 kts 288°
2026-04-22 12:40 30.12878 -99.93188 34530 ft 308 kts 288°
2026-04-22 12:40 30.13546 -99.95536 34832 ft 307 kts 288°
2026-04-22 12:40 30.14213 -99.97884 35134 ft 307 kts 288°
2026-04-22 12:40 30.14871 -100.00200 35423 ft 307 kts 288°
2026-04-22 12:41 30.15539 -100.02556 35654 ft 313 kts 288°
2026-04-22 12:41 30.16222 -100.04964 35896 ft 319 kts 288°
2026-04-22 12:41 30.16923 -100.07439 36137 ft 325 kts 288°
2026-04-22 12:41 30.17621 -100.09905 36369 ft 329 kts 288°
2026-04-22 12:42 30.18334 -100.12428 36591 ft 329 kts 288°
2026-04-22 12:42 30.19042 -100.14933 36808 ft 328 kts 288°
2026-04-22 12:42 30.19748 -100.17433 37027 ft 327 kts 288°
2026-04-22 12:42 30.20455 -100.19940 37246 ft 327 kts 288°
2026-04-22 12:43 30.21166 -100.22461 37375 ft 334 kts 288°
2026-04-22 12:43 30.21890 -100.25034 37516 ft 341 kts 288°
2026-04-22 12:43 30.22626 -100.27647 37665 ft 347 kts 288°
2026-04-22 12:43 30.23385 -100.30353 37842 ft 353 kts 288°
2026-04-22 12:44 30.24150 -100.33073 38025 ft 359 kts 288°
2026-04-22 12:44 30.24929 -100.35847 38220 ft 363 kts 288°
2026-04-22 12:44 30.25720 -100.38666 38386 ft 364 kts 288°
2026-04-22 12:44 30.26503 -100.41458 38530 ft 363 kts 288°
2026-04-22 12:45 30.27284 -100.44251 38636 ft 362 kts 288°
2026-04-22 12:45 30.28036 -100.46944 38744 ft 362 kts 288°
2026-04-22 12:45 30.28806 -100.49699 38855 ft 362 kts 288°